History for Boise, ID on Monday, December 22, 2014

Jump to data by:

Latest visited Airport Codes: KBOI

Data type:
 

« Previous Day | Next Day »

 
Daily Summary
Actual Average Record
Temperature
Mean Temperature 39 °F 30 °F  
Max Temperature 39 °F 36 °F 65 °F (1964)
Min Temperature 39 °F 23 °F -25 °F (1990)
Degree Days
Heating Degree Days 26 35  
Month to date heating degree days 743  
Since 1 July heating degree days 1997  
Cooling Degree Days 0 0  
Month to date cooling degree days 0  
Year to date cooling degree days 942  
Moisture
Dew Point 39 °F    
Average Humidity 99    
Maximum Humidity 100    
Minimum Humidity 97    
Precipitation
Precipitation 0.08 in 0.05 in 0.73 in (1964)
Month to date precipitation 1.10  
Year to date precipitation 11.28  
Snow
Snow - 0.20 in 9.00 in (1913)
Month to date snowfall 4.7  
Since 1 July snowfall 7.4  
Snow Depth -    
Sea Level Pressure
Sea Level Pressure 30.10 in    
Wind
Wind Speed 2 mph ()    
Max Wind Speed 8 mph    
Max Gust Speed -    
Visibility 3.6 miles    
Events Rain   
Key: T is trace of precipitation, MM is missing value
Source: Averaged Metar Reports
Time (MST) Temp. Dew Point Humidity Sea Level Pressure Visibility Wind Direction Wind Speed Gust Speed Precip. Events Conditions
12:19 AM 39.2 °F 39.2 °F 100% 30.09 in 3.0 miles Calm Calm - 0.02 in Rain Light Rain
12:53 AM 39.9 °F 39.0 °F 97% 30.11 in 3.0 miles Calm Calm - 0.03 in Rain Light Rain
1:19 AM 39.2 °F 39.2 °F 100% 30.09 in 5.0 miles Calm Calm - 0.01 in Rain Light Rain
1:53 AM 39.9 °F 39.0 °F 97% 30.10 in 5.0 miles Calm Calm - 0.01 in   Overcast
2:40 AM 39.2 °F 39.2 °F 100% 30.08 in 4.0 miles WSW 3.5 mph - 0.01 in Rain Light Rain
2:53 AM 39.9 °F 39.0 °F 97% 30.10 in 4.0 miles Calm Calm - 0.01 in Rain Light Rain
3:10 AM 39.2 °F 39.2 °F 100% 30.09 in 2.5 miles WNW 3.5 mph - 0.01 in Rain Light Rain
3:21 AM 39.2 °F 39.2 °F 100% 30.09 in 2.5 miles WSW 4.6 mph - 0.01 in Rain Light Rain
3:31 AM 39.2 °F 39.2 °F 100% 30.08 in 2.5 miles West 3.5 mph - 0.01 in Rain Light Rain
3:53 AM 39.9 °F 39.0 °F 97% 30.11 in 1.2 miles NW 3.5 mph - 0.02 in Rain Light Rain
4:02 AM 39.2 °F 39.2 °F 100% 30.09 in 1.5 miles WNW 3.5 mph - 0.00 in Rain Light Rain
4:15 AM 39.2 °F 39.2 °F 100% 30.08 in 2.5 miles West 3.5 mph - 0.01 in Rain Light Rain
4:28 AM 39.2 °F 39.2 °F 100% 30.09 in 2.5 miles West 3.5 mph - 0.01 in Rain Light Rain
4:48 AM 39.2 °F 39.2 °F 100% 30.09 in 1.5 miles WNW 3.5 mph - 0.01 in Rain Light Rain
4:53 AM 39.9 °F 39.0 °F 97% 30.12 in 1.5 miles WNW 3.5 mph - 0.01 in Rain Light Rain
5:00 AM 39.2 °F 39.2 °F 100% 30.09 in 1.2 miles Calm Calm - 0.00 in Rain Light Rain
5:14 AM 39.2 °F 39.2 °F 100% 30.09 in 2.0 miles NW 4.6 mph - 0.00 in Rain Light Rain
5:23 AM 39.2 °F 39.2 °F 100% 30.08 in 3.0 miles NW 4.6 mph - 0.00 in   Overcast
5:40 AM 39.2 °F 39.2 °F 100% 30.09 in 4.0 miles NW 5.8 mph - 0.00 in   Overcast
5:53 AM 39.9 °F 39.0 °F 97% 30.12 in 5.0 miles NW 6.9 mph - 0.00 in   Overcast
6:05 AM 39.2 °F 39.2 °F 100% 30.09 in 5.0 miles NW 6.9 mph - N/A   Overcast
6:40 AM 39.2 °F 39.2 °F 100% 30.10 in 6.0 miles NW 5.8 mph - N/A   Overcast
6:53 AM 39.9 °F 39.0 °F 97% 30.13 in 7.0 miles NW 8.1 mph - N/A   Overcast
7:53 AM 39.9 °F 39.0 °F 97% 30.13 in 8.0 miles West 6.9 mph - N/A   Overcast
8:22 AM 39.2 °F 39.2 °F 100% 30.11 in 6.0 miles West 5.8 mph - N/A   Overcast

Powered by the Weather Underground, Inc.